Columbus, OH

9:02 AM EDT on August 23, 2017 (GMT -0400)
Port Columbus International

Weather History for KCMH - October, 2012

Change the Weather History Date:

Friday, October 5, 2012

  Actual Average Record
Temperature  
Mean Temperature 62 °F 59 °F  
Max Temperature 76 °F 69 °F 90 °F (1951)
Min Temperature 47 °F 49 °F 31 °F (1968)
Degree Days  
Heating Degree Days 3 7  
Month to date heating degree days 12 33  
Since 1 July heating degree days 98 102  
Cooling Degree Days 0 1  
Month to date cooling degree days 3 6  
Year to date cooling degree days 1424 1017  
Growing Degree Days 12 (Base 50)    
Moisture  
Dew Point 53 °F    
Average Humidity 66    
Maximum Humidity 86    
Minimum Humidity 46    
Precipitation  
Precipitation 0.18 in 0.09 in 2.84 in (1910)
Month to date precipitation 0.58 0.43  
Year to date precipitation 27.43 30.96  
Snow  
Snow 0.00 in 0.00 in - ()
Month to date snowfall 0.0 0.0  
Since 1 July snowfall 0.0 0.0  
Since 1 September snowfall 0.0 0.0  
Snow Depth 0.00 in    
Sea Level Pressure  
Sea Level Pressure 30.03 in    
Wind  
Wind Speed 7 mph (WNW)    
Max Wind Speed 20 mph    
Max Gust Speed 25 mph    
Visibility 10 miles    
Events Rain    
T = Trace of Precipitation, MM = Missing Value Source: NWS Daily Summary

Daily Weather History Graph

Daily Weather History Graph

Search for Another Location

Airport or City:

Trip Planner

Search our weather history database for the weather conditions in past years. The results will help you decide how hot, cold, wet, or windy it might be!

Date:

Astronomy

Oct. 05, 2012 Rise Set
Actual Time 7:32 AM EDT 7:06 PM EDT
Civil Twilight 7:05 AM EDT 7:33 PM EDT
Nautical Twilight 6:33 AM EDT 8:04 PM EDT
Astronomical Twilight 6:02 AM EDT 8:36 PM EDT
Moon 10:29 PM EDT (10/5) 12:38 PM EDT (10/5)
Length of Visible Light 12h 28m
Length of Day
11h 34m
Waning Gibbous, 74% of the Moon is Illuminated
Oct 5
Waning Gibbous
Oct 8
Last Quarter
Oct 15
New
Oct 21
First Quarter
Oct 29
Full

Hourly Weather History & Observations

Time (EDT) Temp. Dew Point Humidity Pressure Visibility Wind Dir Wind Speed Gust Speed Precip Events Conditions
12:51 AM 62.1 °F 54.0 °F 75% 30.12 in 10.0 mi South 4.6 mph - N/A   Clear
1:51 AM 60.8 °F 53.6 °F 77% 30.14 in 10.0 mi South 4.6 mph - N/A   Clear
2:51 AM 59.0 °F 54.0 °F 83% 30.12 in 10.0 mi SSE 3.5 mph - N/A   Clear
3:51 AM 59.0 °F 54.0 °F 83% 30.09 in 10.0 mi SSE 3.5 mph - N/A   Clear
4:51 AM 59.0 °F 54.0 °F 83% 30.11 in 10.0 mi Calm Calm - N/A   Clear
5:51 AM 59.0 °F 54.0 °F 83% 30.11 in 10.0 mi South 3.5 mph - N/A   Mostly Cloudy
6:51 AM 57.0 °F 54.0 °F 89% 30.12 in 9.0 mi Calm Calm - N/A   Partly Cloudy
7:51 AM 57.9 °F 54.0 °F 87% 30.12 in 7.0 mi Calm Calm - N/A   Scattered Clouds
8:51 AM 60.1 °F 55.0 °F 83% 30.11 in 8.0 mi SSW 4.6 mph - N/A   Partly Cloudy
9:51 AM 63.0 °F 55.9 °F 78% 30.10 in 9.0 mi SSW 5.8 mph - N/A   Partly Cloudy
10:51 AM 66.0 °F 57.0 °F 73% 30.09 in 10.0 mi SW 5.8 mph - N/A   Scattered Clouds
11:51 AM 68.0 °F 57.0 °F 68% 30.09 in 10.0 mi WSW 6.9 mph - N/A   Scattered Clouds
12:51 PM 71.1 °F 57.9 °F 63% 30.07 in 10.0 mi WSW 9.2 mph - N/A   Scattered Clouds
1:51 PM 73.0 °F 57.0 °F 57% 30.04 in 10.0 mi SW 11.5 mph - N/A   Overcast
2:51 PM 71.6 °F 55.4 °F 57% 30.03 in 10.0 mi WNW 6.9 mph - N/A   Overcast
3:51 PM 73.9 °F 55.9 °F 53% 29.98 in 10.0 mi WSW 5.8 mph 18.4 mph N/A   Overcast
4:51 PM 75.0 °F 55.0 °F 50% 29.96 in 10.0 mi WSW 12.7 mph - N/A   Overcast
5:51 PM 75.0 °F 54.0 °F 48% 29.95 in 10.0 mi SW 15.0 mph - N/A   Overcast
6:17 PM 69.8 °F 55.4 °F 60% 29.97 in 10.0 mi NW 18.4 mph 24.2 mph N/A   Mostly Cloudy
6:19 PM 68.0 °F 55.4 °F 64% 29.98 in 10.0 mi NNW 17.3 mph 24.2 mph N/A   Overcast
6:28 PM 64.4 °F 53.6 °F 68% 29.98 in 10.0 mi North 13.8 mph - N/A   Overcast
6:51 PM 62.1 °F 54.0 °F 75% 29.97 in 10.0 mi North 9.2 mph - N/A   Overcast
7:51 PM 57.9 °F 52.0 °F 81% 29.95 in 10.0 mi North 9.2 mph - N/A   Overcast
8:21 PM 57.2 °F 51.8 °F 82% 29.98 in 10.0 mi NNW 13.8 mph - N/A   Overcast
8:51 PM 55.9 °F 50.0 °F 80% 29.99 in 10.0 mi NW 9.2 mph - N/A   Overcast
9:27 PM 55.4 °F 51.8 °F 88% 29.99 in 10.0 mi North 13.8 mph - 0.00 in Rain Light Rain
9:51 PM 53.1 °F 48.9 °F 86% 29.99 in 10.0 mi NNW 13.8 mph 20.7 mph 0.00 in Rain Light Rain
10:10 PM 51.8 °F 46.4 °F 82% 29.99 in 10.0 mi NNW 12.7 mph - 0.01 in Rain Light Rain
10:51 PM 48.9 °F 45.0 °F 86% 29.98 in 10.0 mi North 13.8 mph - 0.01 in Rain Light Rain
11:09 PM 48.2 °F 44.6 °F 87% 29.97 in 10.0 mi North 11.5 mph 17.3 mph 0.01 in Rain Light Rain
11:19 PM 48.2 °F 44.6 °F 87% 29.97 in 10.0 mi North 8.1 mph - 0.01 in Rain Light Rain
11:30 PM 48.2 °F 44.6 °F 87% 29.97 in 10.0 mi North 8.1 mph - 0.01 in Rain Light Rain
11:41 PM 48.2 °F 44.6 °F 87% 29.98 in 6.0 mi NW 8.1 mph - 0.02 in Rain Light Rain
11:51 PM 48.2 °F 44.6 °F 87% 29.97 in 6.0 mi North 10.4 mph - N/A Rain Rain